Terug naar catalogus

NUSAT-38

MARIA AGNESI

ActiefWetenschapSSO
NORAD 56202·PAYLOAD·🇦🇷 Argentina

Gelanceerd Apr 15, 2023 vanaf Vandenberg Space Force Base

Loading…

Volgende Passages (komende 24 uur)

TLE

VersSource: Space-Track

Epoch: Sep 14, 2026, 13:53 UTC

1 56202U 23054AA  26257.57909216  .00031167  00000-0  46753-3 0  9996
2 56202  97.2968 169.4092 0013085  90.9145 269.3608 15.54768402192372

Volg NUSAT-38 in realtime met AllMySat

Download on the App Store